Regional Weather Roundup
Issued by NWS Sioux Falls, SD

Home | Current Version | Previous Version | Graphics & Text | Print | Product List | Glossary On
Versions: 1 2 3 4 5 6 7 8 9 10 11 12 13 14 15 16 17 18 19 20 21 22 23 24 25 26 27 28 29 30 31 32 33 34 35 36 37 38 39 40 41 42 43 44 45 46 47 48 49 50
000
ASUS43 KFSD 200802
RWRFSD

WEATHER ROUNDUP FOR SE SOUTH DAKOTA/SW MINNESOTA/NW IOWA
NATIONAL WEATHER SERVICE SIOUX FALLS SD
200 AM CST SAT JAN 20 2018

NOTE: "FAIR" INDICATES FEW OR NO CLOUDS BELOW 12,000 FEET WITH NO
SIGNIFICANT WEATHER AND OR OBSTRUCTIONS TO VISIBILITY.


SDZ038>040-050-052>070-200900-
SOUTHEAST SOUTH DAKOTA

CITY           SKY/WX    TMP DP  RH WIND       PRES   REMARKS
BROOKINGS      PTCLDY    30  28  92 N3        29.76S
CHAMBERLAIN    PTCLDY    32  32  99 CALM      29.82R
HURON          MOCLDY    30  27  88 W3        29.79R
MADISON        FAIR      32  32 100 NW7       29.77R WCI  26
MITCHELL       MOCLDY    31  29  92 W3        29.80S
SIOUX FALLS    CLOUDY    26  25  96 CALM      29.77R
WINNER         FAIR      33  29  85 W5        29.81S WCI  29
YANKTON        CLOUDY    32  29  88 NW12      29.79R WCI  23
$$

MNZ071-072-080-081-089-090-097-098-200900-
SOUTHWEST MINNESOTA

CITY           SKY/WX    TMP DP  RH WIND       PRES   REMARKS
FAIRMONT       CLOUDY    31  29  92 NW6       29.77R WCI  25
JACKSON        CLOUDY    32  28  86 N3        29.76S
LUVERNE        CLOUDY    30  27  86 N3        29.77R
MARSHALL       PTCLDY    31  28  89 NW3       29.77R
MONTEVIDEO     PTCLDY    32  27  80 W5        29.77S WCI  27
PIPESTONE      PTCLDY    34  27  75 N3        29.75S
REDWOOD FALLS  PTCLDY    31  27  85 NW8       29.77R WCI  23
TRACY          MOCLDY    36  31  79 W5        29.76R
WINDOM         CLOUDY    36  19  51 NW6       29.76R
WORTHINGTON    CLOUDY    28  26  92 NW9       29.76S WCI  19
$$

IAZ001>003-012>014-020>022-031-032-NEZ013-014-SDZ071-200900-
NORTHWEST IOWA

CITY           SKY/WX    TMP DP  RH WIND       PRES   REMARKS
CHEROKEE       CLOUDY    27  27 100 CALM      29.77R
DENISON        CLOUDY    28  27  93 CALM      29.79R
ESTHERVILLE    CLOUDY    30  28  92 NW5       29.75R WCI  25
LE MARS        CLOUDY    28  27  93 CALM      29.77R
ORANGE CITY    CLOUDY    36  34  93 CALM      29.75S
SHELDON        CLOUDY    27  27 100 N3        29.74S
SIOUX CITY     CLOUDY    30  29  96 NW3       29.78R
SPENCER        CLOUDY    27  25  92 SW3       29.76R
STORM LAKE     CLOUDY    34  30  86 N5        29.75S WCI  30
$$

ABBREVIATIONS USED IN REMARKS
   TC - TEMPERATURE IN CELSIUS
  WCI - WIND CHILL INDEX
   HX - HEAT INDEX
  VSB - VISIBILITY




USA.gov is the U.S. government's official web portal to all federal, state and local government web resources and services.